This is the latest recevied weather packets stored in our database for station/object KF4WSW-13. If no packets are shown the sender has not sent any weather packets the latest 10 day(s).
| Time | Temp. | Humidity | Pressure | Rain* | Wind** | Luminosity | Snow |
|---|---|---|---|---|---|---|---|
| 1778021323 | 25.56° C | 75% | 1012.8 hPa | 0 mm | - | 68 W/m² | - |
| 1778021021 | 25.56° C | 74% | 1012.9 hPa | 0 mm | - | 66 W/m² | - |
| 1778020718 | 25.56° C | 75% | 1012.9 hPa | 0 mm | - | 73 W/m² | - |
| 1778020415 | 25.56° C | 73% | 1012.8 hPa | 0 mm | - | 78 W/m² | - |
| 1778020110 | 25.56° C | 72% | 1012.9 hPa | 0 mm | - | 84 W/m² | - |
| 1778019807 | 25.56° C | 73% | 1012.9 hPa | 0 mm | - | 82 W/m² | - |
| 1778019504 | 25.56° C | 73% | 1013 hPa | 0 mm | - | 91 W/m² | - |
| 1778019201 | 25.56° C | 73% | 1012.9 hPa | 0 mm | - | 143 W/m² | - |
| 1778018898 | 25.56° C | 73% | 1013 hPa | 0 mm | - | 96 W/m² | - |
| 1778018595 | 26.11° C | 72% | 1012.9 hPa | 0 mm | - | 95 W/m² | - |
| 1778018293 | 25.56° C | 72% | 1012.7 hPa | 0 mm | - | 110 W/m² | - |
| 1778017990 | 26.11° C | 73% | 1013.1 hPa | 0 mm | - | 138 W/m² | - |
| 1778017688 | 26.11° C | 72% | 1013 hPa | 0 mm | - | 169 W/m² | - |
| 1778017385 | 26.11° C | 72% | 1012.9 hPa | 0 mm | - | 155 W/m² | - |
| 1778017082 | 26.67° C | 71% | 1012.8 hPa | 0 mm | - | 133 W/m² | - |
| 1778016780 | 26.11° C | 69% | 1013 hPa | 0 mm | - | 149 W/m² | - |
| 1778016475 | 26.11° C | 70% | 1012.7 hPa | 0 mm | - | 141 W/m² | - |
| 1778016173 | 26.67° C | 70% | 1012.9 hPa | 0 mm | - | 165 W/m² | - |
| 1778015870 | 26.67° C | 68% | 1012.7 hPa | 0 mm | - | 223 W/m² | - |
| 1778015567 | 26.67° C | 66% | 1013 hPa | 0 mm | - | 214 W/m² | - |
| 1778015263 | 26.67° C | 68% | 1012.8 hPa | 0 mm | - | 213 W/m² | - |
| 1778014960 | 26.67° C | 67% | 1012.8 hPa | 0 mm | - | 284 W/m² | - |
| 1778014658 | 26.67° C | 68% | 1012.7 hPa | 0 mm | - | 350 W/m² | - |
| 1778014356 | 26.67° C | 68% | 1012.8 hPa | 0 mm | - | 294 W/m² | - |
| 1778014052 | 26.67° C | 68% | 1013 hPa | 0 mm | - | 419 W/m² | - |
* Rain latest hour (hover to see other rain measurements)
** Current wind speed in m/s (hover to see current wind gust speed)